Weather History for Marianna, FL

Change the Weather History Date:

Friday, July 4, 2014

  Actual Average Record
Temperature  
Mean Temperature 80 °F 82 °F  
Max Temperature 93 °F 92 °F 99 °F (1997)
Min Temperature 67 °F 71 °F 67 °F (2014)
Degree Days  
Heating Degree Days 0    
Month to date heating degree days 0  
Since 1 June heating degree days 0  
Since 1 July heating degree days 0  
Cooling Degree Days 15    
Month to date cooling degree days 78  
Year to date cooling degree days 1009  
Since 1 June cooling degree days 575  
Growing Degree Days 28 (Base 50)    
Moisture  
Dew Point 62 °F    
Average Humidity 65    
Maximum Humidity 100    
Minimum Humidity 30    
Precipitation  
Precipitation 0.00 in 0.18 in 2.40 in (2013)
Month to date precipitation T 0.72  
Year to date precipitation 34.39 28.51  
Sea Level Pressure  
Sea Level Pressure 30.08 in    
Wind  
Wind Speed 5 mph (NNW)    
Max Wind Speed 15 mph    
Max Gust Speed 20 mph    
Visibility 10 miles    
Events Rain    
T = Trace of Precipitation, MM = Missing Value Source: NWS Daily Summary

Daily Weather History Graph

Daily Weather History Graph

Search for Another Location

Airport:

Trip Planner

Search our weather history database for the weather conditions in past years. The results will help you decide how hot, cold, wet, or windy it might be!

Date:

Astronomy

Jul. 04, 2014 Rise Set
Actual Time 5:42 AM CDT 7:47 PM CDT
Civil Twilight 5:14 AM CDT 8:15 PM CDT
Nautical Twilight 4:41 AM CDT 8:48 PM CDT
Astronomical Twilight 4:05 AM CDT 9:24 PM CDT
Moon 12:09 PM CDT (7/4) No Moon Set
Length of Visible Light 15h 00m
Length of Day
14h 05m
Waxing Crescent, 42% of the Moon is Illuminated
Jul 4
Waxing Crescent
Jul 5
First Quarter
Jul 12
Full
Jul 18
Last Quarter
Jul 26
New

Hourly Weather History & Observations

Time (CDT) Temp. Heat Index Dew Point Humidity Pressure Visibility Wind Dir Wind Speed Gust Speed Precip Events Conditions
12:53 AM 75.0 °F - 66.9 °F 76% 30.05 in 10.0 mi Calm Calm - N/A   Clear
1:53 AM 73.0 °F - 66.9 °F 81% 30.05 in 10.0 mi Calm Calm - N/A   Clear
2:53 AM 72.0 °F - 66.9 °F 84% 30.05 in 10.0 mi Calm Calm - N/A   Clear
3:53 AM 70.0 °F - 66.9 °F 90% 30.05 in 10.0 mi Calm Calm - N/A   Clear
4:53 AM 69.1 °F - 66.9 °F 93% 30.07 in 10.0 mi Calm Calm - N/A   Clear
5:53 AM 66.9 °F - 66.0 °F 97% 30.09 in 10.0 mi WNW 3.5 mph - N/A   Clear
6:53 AM 71.1 °F - 66.0 °F 84% 30.10 in 10.0 mi North 4.6 mph - N/A   Clear
7:53 AM 75.9 °F - 63.0 °F 64% 30.11 in 10.0 mi NNE 8.1 mph - N/A   Clear
8:53 AM 80.1 °F 81.2 °F 62.1 °F 54% 30.12 in 10.0 mi North 5.8 mph - N/A   Clear
9:53 AM 82.9 °F 83.7 °F 62.1 °F 49% 30.13 in 10.0 mi North 5.8 mph - N/A   Clear
10:53 AM 84.9 °F 84.8 °F 60.1 °F 43% 30.12 in 10.0 mi NW 8.1 mph - N/A   Clear
11:53 AM 86.0 °F 85.4 °F 59.0 °F 40% 30.11 in 10.0 mi North 8.1 mph - N/A   Clear
12:53 PM 89.1 °F 87.3 °F 55.9 °F 32% 30.10 in 10.0 mi NW 5.8 mph - N/A   Clear
1:53 PM 90.0 °F 88.6 °F 57.0 °F 33% 30.09 in 10.0 mi West 13.8 mph 19.6 mph N/A   Clear
2:53 PM 89.1 °F 88.0 °F 57.9 °F 35% 30.07 in 10.0 mi Calm Calm - N/A   Clear
3:53 PM 91.9 °F 90.6 °F 57.0 °F 31% 30.06 in 10.0 mi NW 11.5 mph - N/A   Clear
4:53 PM 91.0 °F 89.2 °F 55.9 °F 30% 30.06 in 10.0 mi NNW 10.4 mph - N/A   Clear
5:53 PM 90.0 °F 88.8 °F 57.9 °F 34% 30.06 in 10.0 mi NNW 11.5 mph - N/A   Clear
6:53 PM 88.0 °F 87.1 °F 59.0 °F 37% 30.06 in 10.0 mi NW 6.9 mph - N/A   Clear
7:53 PM 82.9 °F 82.8 °F 59.0 °F 44% 30.07 in 10.0 mi NNW 4.6 mph - N/A   Clear
8:53 PM 78.1 °F - 62.1 °F 58% 30.08 in 10.0 mi NW 3.5 mph - N/A Rain Rain
9:53 PM 75.9 °F - 63.0 °F 64% 30.09 in 10.0 mi WNW 3.5 mph - N/A   Clear
10:53 PM 73.0 °F - 64.0 °F 73% 30.10 in 10.0 mi NW 3.5 mph - N/A   Clear
11:53 PM 73.0 °F - 64.0 °F 73% 30.10 in 10.0 mi Calm Calm - N/A   Clear